CW2882 Anacortes WA US current weather conditions

sailwx.info

Wind from 137 at 0 knots gusting 1

Air temperature 3.3° C
Dewpoint 2.9° C

Last reported at 2019-Dec-09 17:08 UTC.
Time now 2019-Dec-09 17:43 UTC

Location: N 48°30' W 122°40'.
View on Google Maps.

See reports from other nearby stations

  
Tides and Currents Weather Stations Pressure Air Temp Water Temp Dewpoint Dewpoint Depression Visibility Wind Speed Wind Dir Waves Ship Positions
date/time (UTC)wind fromknots sea level pressurealtimeterstation pressurevisibilityair tempwater tempwave heightnotes
2019-Dec-09 17:08 137 0 gusting 1 3.3
2019-Dec-09 17:03 127 0 gusting 2 3.3
2019-Dec-09 16:58 132 0 gusting 2 3.3
2019-Dec-09 16:53 116 3.3
2019-Dec-09 16:48 134 3.3
2019-Dec-09 16:43 127 3.3
2019-Dec-09 16:38 127 3.3
2019-Dec-09 16:33 129 3.3
2019-Dec-09 16:28 123 3.3
2019-Dec-09 16:23 134 3.3
2019-Dec-09 16:18 129 3.3
2019-Dec-09 16:13 131 3.3
2019-Dec-09 16:08 129 3.3
2019-Dec-09 16:03 128 3.3
2019-Dec-09 15:58 132 3.3
2019-Dec-09 15:53 130 3.3
2019-Dec-09 15:48 115 3.3
2019-Dec-09 15:43 145 3.3
2019-Dec-09 15:38 129 3.3
2019-Dec-09 15:33 111 0 gusting 1 3.3
2019-Dec-09 15:28 141 0 gusting 1 3.3
2019-Dec-09 15:23 122 0 gusting 2 3.3
2019-Dec-09 15:18 139 0 gusting 2 3.3
2019-Dec-09 15:13 107 0 gusting 2 3.3
2019-Dec-09 15:08 127 3.3
2019-Dec-09 15:03 139 3.3
2019-Dec-09 14:58 127 3.3
2019-Dec-09 14:53 136 3.3
2019-Dec-09 14:48 143 3.3
2019-Dec-09 14:43 133 3.3
2019-Dec-09 14:38 160 3.3
2019-Dec-09 14:33 167 3.3
2019-Dec-09 14:28 137 0 gusting 1 3.9
2019-Dec-09 14:23 122 3.9
2019-Dec-09 14:18 134 3.9
2019-Dec-09 14:13 138 3.9
2019-Dec-09 14:08 132 3.9
2019-Dec-09 14:03 113 3.9
2019-Dec-09 13:58 113 4.4
2019-Dec-09 13:53 111 4.4
2019-Dec-09 13:48 148 4.4
2019-Dec-09 13:43 150 4.4
2019-Dec-09 13:38 126 4.4
2019-Dec-09 13:33 126 4.4
2019-Dec-09 13:28 125 4.4
2019-Dec-09 13:23 126 4.4
2019-Dec-09 13:18 126 4.4
2019-Dec-09 13:13 126 4.4
2019-Dec-09 13:08 126 4.4
2019-Dec-09 13:03 126 4.4
2019-Dec-09 12:58 120 4.4
2019-Dec-09 12:53 120 4.4
2019-Dec-09 12:48 120 4.4
2019-Dec-09 12:43 120 4.4
2019-Dec-09 12:38 121 4.4
2019-Dec-09 12:33 103 4.4
2019-Dec-09 12:28 107 4.4
2019-Dec-09 12:23 077 4.4
2019-Dec-09 12:18 122 4.4
2019-Dec-09 12:13 134 0 gusting 1 3.9
2019-Dec-09 12:08 113 3.9
2019-Dec-09 12:03 113 3.9
2019-Dec-09 11:58 129 3.9
2019-Dec-09 11:53 112 0 gusting 1 3.9
2019-Dec-09 11:48 137 3.9
2019-Dec-09 11:43 118 3.9
2019-Dec-09 11:38 099 3.9
2019-Dec-09 11:33 076 3.9
2019-Dec-09 11:28 105 3.9
2019-Dec-09 11:23 093 3.9
2019-Dec-09 11:18 126 3.9
2019-Dec-09 11:13 100 3.9
2019-Dec-09 07:28 127 0 gusting 0 5.0
2019-Dec-09 07:23 117 5.0
2019-Dec-09 07:18 117 0 gusting 2 5.0
2019-Dec-09 07:13 109 5.6
2019-Dec-09 07:08 116 5.6
2019-Dec-09 07:03 120 5.6
2019-Dec-09 06:58 124 5.6
2019-Dec-09 06:53 124 5.6
2019-Dec-09 06:48 113 5.6
2019-Dec-09 06:43 133 5.6
2019-Dec-09 06:38 128 0 gusting 1 5.6
2019-Dec-09 06:33 132 6.1
2019-Dec-09 06:28 113 6.1
2019-Dec-09 06:23 113 6.1
2019-Dec-09 06:18 114 6.1
2019-Dec-09 06:13 114 6.1
2019-Dec-09 06:08 103 6.1
2019-Dec-09 06:03 121 6.7
2019-Dec-09 05:58 126 6.7
2019-Dec-09 05:53 127 6.7
2019-Dec-09 05:48 138 0 gusting 1 6.7
2019-Dec-09 05:43 122 0 gusting 1 6.7
2019-Dec-09 05:38 111 6.1
2019-Dec-09 05:33 109 0 gusting 1 6.1
2019-Dec-09 05:28 163 6.1
2019-Dec-09 05:23 163 6.1
2019-Dec-09 05:18 164 6.1
2019-Dec-09 05:13 163 6.1
2019-Dec-09 05:08 163 6.1
2019-Dec-09 05:03 163 6.1
2019-Dec-09 04:58 164 6.1
2019-Dec-09 04:53 139 6.1
2019-Dec-09 04:48 139 6.1
2019-Dec-09 04:43 138 6.1
2019-Dec-09 04:38 118 6.7
2019-Dec-09 04:33 119 6.7
2019-Dec-09 04:28 127 0 gusting 1 6.7
2019-Dec-09 04:23 142 0 gusting 1 6.7
2019-Dec-09 04:18 134 6.7
2019-Dec-09 04:13 132 6.7
2019-Dec-09 04:08 141 6.7
2019-Dec-09 04:03 154 0 gusting 1 6.7
2019-Dec-09 03:58 129 7.2
2019-Dec-09 03:53 125 7.2
2019-Dec-09 03:48 148 7.2
2019-Dec-09 03:43 128 7.2
2019-Dec-09 03:38 128 7.2
2019-Dec-09 03:33 117 7.2
2019-Dec-09 03:28 102 7.2
2019-Dec-09 03:23 102 7.2
2019-Dec-09 03:18 053 7.2
2019-Dec-09 03:13 110 7.2
2019-Dec-09 03:08 082 7.2
2019-Dec-09 03:03 082 7.2
2019-Dec-09 02:58 073 7.2
2019-Dec-09 02:53 097 0 gusting 2 7.2
2019-Dec-09 02:48 098 7.2
2019-Dec-09 02:43 091 0 gusting 2 7.2
2019-Dec-09 02:38 060 7.2
2019-Dec-09 02:33 058 7.2
2019-Dec-09 02:28 058 7.2
2019-Dec-08 23:23 328 4 gusting 6 8.3
2019-Dec-08 23:18 324 2 gusting 6 8.3
2019-Dec-08 23:13 034 3 gusting 6 8.3
2019-Dec-08 23:08 001 2 gusting 6 8.3
2019-Dec-08 23:03 018 1 gusting 7 8.3
2019-Dec-08 22:58 061 3 gusting 7 8.3
2019-Dec-08 22:53 037 2 gusting 6 8.3
2019-Dec-08 22:48 064 2 gusting 8 8.3
2019-Dec-08 22:43 030 3 gusting 9 8.3
2019-Dec-08 22:38 338 3 gusting 9 8.3
2019-Dec-08 22:33 023 4 gusting 6 8.3
2019-Dec-08 22:28 359 4 gusting 11 8.3
2019-Dec-08 22:23 039 3 gusting 9 8.3
2019-Dec-08 22:18 022 3 gusting 9 8.3
2019-Dec-08 22:13 031 4 gusting 9 8.3
2019-Dec-08 22:08 057 3 gusting 9 8.3
2019-Dec-08 22:03 011 2 gusting 7 8.3
2019-Dec-08 21:58 013 3 gusting 8 8.3
2019-Dec-08 21:48 065 0 gusting 4 8.3
2019-Dec-08 21:43 311 1 gusting 6 8.3
2019-Dec-08 21:38 035 3 gusting 6 8.3
2019-Dec-08 21:33 056 1 gusting 5 8.3
2019-Dec-08 21:28 018 2 gusting 8 8.3
2019-Dec-08 21:23 030 4 gusting 8 8.3
2019-Dec-08 21:18 035 4 gusting 7 8.3
2019-Dec-08 21:13 020 2 gusting 8 8.3
2019-Dec-08 21:08 037 4 gusting 8 8.3
2019-Dec-08 21:03 053 1 gusting 6 8.3
2019-Dec-08 20:58 316 2 gusting 4 8.3
2019-Dec-08 20:53 077 1 gusting 4 8.3
2019-Dec-08 20:48 103 0 gusting 4 8.3
2019-Dec-08 20:43 092 1 gusting 3 7.8
2019-Dec-08 20:38 046 1 gusting 5 7.8
2019-Dec-08 20:33 351 1 gusting 5 7.8
2019-Dec-08 20:29 034 1 gusting 4 8.3
2019-Dec-08 20:23 053 0 gusting 4 8.3
2019-Dec-08 20:18 048 1 gusting 5 8.3
2019-Dec-08 20:13 054 2 gusting 5 8.3
2019-Dec-08 20:09 326 0 gusting 3 8.3
2019-Dec-08 20:03 314 1 gusting 3 8.3
2019-Dec-08 19:58 308 2 gusting 3 8.3
2019-Dec-08 19:53 300 1 gusting 3 8.3
2019-Dec-08 19:48 277 0 gusting 3 8.3
2019-Dec-08 19:43 298 0 gusting 5 8.3
2019-Dec-08 19:38 335 1 gusting 5 8.3
2019-Dec-08 19:33 304 1 gusting 6 8.3
2019-Dec-08 19:28 308 2 gusting 6 8.3
2019-Dec-08 19:23 299 3 gusting 6 8.3
2019-Dec-08 19:18 307 1 gusting 4 8.3
2019-Dec-08 19:13 308 0 gusting 4 8.3
2019-Dec-08 19:08 297 1 gusting 3 8.3
2019-Dec-08 19:03 317 1 gusting 2 8.3
2019-Dec-08 18:58 283 8.3
2019-Dec-08 18:53 271 8.3
2019-Dec-08 18:48 279 0 gusting 2 8.3
2019-Dec-08 18:43 271 0 gusting 2 8.3
2019-Dec-08 18:38 290 0 gusting 2 8.3
2019-Dec-08 18:33 339 8.3
2019-Dec-08 18:28 015 8.3
2019-Dec-08 18:23 015 8.3
2019-Dec-08 18:18 013 0 gusting 4 8.3
2019-Dec-08 18:13 030 1 gusting 4 7.8
2019-Dec-08 18:08 020 0 gusting 3 7.8
2019-Dec-08 18:03 056 1 gusting 3 7.8
2019-Dec-08 17:58 045 0 gusting 4 7.8
2019-Dec-08 17:53 335 1 gusting 4 7.8
2019-Dec-08 17:48 021 0 gusting 4 7.8
2019-Dec-08 17:43 029 0 gusting 5 8.3
2019-Dec-08 17:38 310 2 gusting 3 8.3
2019-Dec-08 17:33 321 0 gusting 6 8.3
2019-Dec-08 17:28 294 3 gusting 6 8.3
2019-Dec-08 17:23 317 3 gusting 6 8.3
2019-Dec-08 17:18 313 3 gusting 5 8.3
2019-Dec-08 17:13 317 1 gusting 5 8.3
2019-Dec-08 17:08 315 1 gusting 5 8.3
2019-Dec-08 17:03 314 2 gusting 6 8.3
2019-Dec-08 16:58 310 2 gusting 6 8.3
2019-Dec-08 16:53 333 3 gusting 6 8.3
2019-Dec-08 16:48 316 1 gusting 4 8.3
2019-Dec-08 16:43 315 8.3
2019-Dec-08 16:38 325 8.3
2019-Dec-08 16:33 042 0 gusting 2 8.3
2019-Dec-08 16:28 294 0 gusting 3 8.3
2019-Dec-08 16:23 313 0 gusting 3 8.3
2019-Dec-08 16:18 311 0 gusting 3 8.3
2019-Dec-08 16:13 353 0 gusting 3 8.3
2019-Dec-08 16:08 358 8.3
2019-Dec-08 16:03 336 0 gusting 3 8.3
2019-Dec-08 15:58 353 0 gusting 4 8.3
2019-Dec-08 15:53 326 0 gusting 4 8.3
2019-Dec-08 15:48 300 0 gusting 4 8.3
2019-Dec-08 15:43 039 1 gusting 4 8.3
2019-Dec-08 15:38 007 8.3
2019-Dec-08 15:33 314 8.3
2019-Dec-08 15:28 336 0 gusting 6 8.3
2019-Dec-08 15:23 317 2 gusting 6 8.3
2019-Dec-08 15:18 345 3 gusting 6 8.3
2019-Dec-08 15:13 289 3 gusting 8 8.3
2019-Dec-08 15:08 311 2 gusting 6 8.3
2019-Dec-08 15:03 333 1 gusting 3 8.3
2019-Dec-08 14:58 324 0 gusting 2 8.3
2019-Dec-08 14:53 346 0 gusting 3 8.3
2019-Dec-08 14:48 314 1 gusting 3 8.3
2019-Dec-08 14:43 313 8.3
2019-Dec-08 14:38 323 0 gusting 4 8.3
2019-Dec-08 14:33 314 0 gusting 4 8.3
2019-Dec-08 14:28 308 0 gusting 1 8.3
2019-Dec-08 14:23 309 8.3
2019-Dec-08 14:18 309 8.3
2019-Dec-08 14:13 309 8.3
2019-Dec-08 14:08 309 8.3
2019-Dec-08 14:03 309 8.3
2019-Dec-08 13:58 309 8.3
2019-Dec-08 13:53 309 8.3
2019-Dec-08 13:48 298 8.3
2019-Dec-08 13:43 298 8.3
2019-Dec-08 13:38 298 8.3
2019-Dec-08 13:33 312 8.3
2019-Dec-08 13:28 315 7.8
2019-Dec-08 13:23 304 7.8
2019-Dec-08 13:18 304 8.3
2019-Dec-08 13:13 304 8.3
2019-Dec-08 13:08 305 8.3
2019-Dec-08 13:03 305 8.3
2019-Dec-08 12:58 305 8.3
2019-Dec-08 12:53 305 8.3
2019-Dec-08 12:48 305 8.3
2019-Dec-08 12:43 305 8.3
2019-Dec-08 12:38 304 8.3
2019-Dec-08 12:33 315 0 gusting 2 8.3
2019-Dec-08 12:28 001 0 gusting 1 8.3
2019-Dec-08 12:23 036 8.3
2019-Dec-08 12:18 347 0 gusting 4 7.8
2019-Dec-08 12:13 004 2 gusting 4 7.8
2019-Dec-08 12:08 285 8.3
2019-Dec-08 12:03 338 0 gusting 4 8.3
2019-Dec-08 11:58 311 0 gusting 1 8.3
2019-Dec-08 11:53 008 8.3
2019-Dec-08 11:48 008 8.3
2019-Dec-08 11:43 008 8.3
2019-Dec-08 11:38 008 8.3
2019-Dec-08 11:33 028 2 gusting 6 8.3
2019-Dec-08 11:28 053 2 gusting 6 8.3
2019-Dec-08 11:23 057 1 gusting 4 8.3
2019-Dec-08 11:18 035 1 gusting 4 8.3
2019-Dec-08 11:13 041 8.3
2019-Dec-08 11:08 079 1 gusting 4 8.3
2019-Dec-08 11:03 055 1 gusting 3 8.3
2019-Dec-08 10:58 325 8.3
2019-Dec-08 10:53 297 8.3
2019-Dec-08 10:48 297 8.3
2019-Dec-08 10:43 297 8.3
2019-Dec-08 10:38 297 8.3
2019-Dec-08 10:33 297 8.3
2019-Dec-08 10:28 297 8.3
2019-Dec-08 10:23 297 7.8
2019-Dec-08 10:18 297 7.8
2019-Dec-08 10:13 297 7.8
2019-Dec-08 10:08 297 7.8
2019-Dec-08 10:03 297 7.8
2019-Dec-08 09:58 297 7.8
2019-Dec-08 09:53 297 7.8
2019-Dec-08 09:48 297 7.8
2019-Dec-08 09:43 297 7.8
2019-Dec-08 09:38 297 7.8
2019-Dec-08 09:33 297 7.8